Location: Godiavel Galaoual
(15.2485°N, 12.6604°W)
Time: 02:06:30
(UTC+00:00)

N. Korean satellite - Pass Details

Date: 07 December 2021
Orbit: 447 x 491 km, 97.3° (Epoch: 22 January)

Event Time Altitude Azimuth Distance (km) Brightness Sun altitude
Rises 06:38:25 0° 342° (NNW) 2,439 9.7 -6.6°
Reaches altitude 10° 06:41:20 10° 312° (NW) 1,571 8.6 -6.0°
Maximum altitude 06:42:54 13° 284° (WNW) 1,410 8.3 -5.6°
Drops below altitude 10° 06:44:29 10° 256° (WSW) 1,577 8.7 -5.3°
Sets 06:47:26 0° 227° (SW) 2,457 9.9 -4.6°
